User: anonymous   Login
Location: Unspecified
(0.0000°N, 0.0000°E)
Time: 06:08:46
(UTC+00:00)
Language:

GOSAT - Orbit

View from above orbital plane
View from above orbital plane
View from above satellite
View from above satellite

Ground track
Ground track

The orbit data is extracted from the following two-line orbital elements,

1 33492U 09002A   17081.84264775 -.00000059 +00000-0 -18644-5 0  9996
2 33492 098.1123 194.2438 0001453 092.6601 267.4757 14.67525320437169
Epoch (UTC): 22 March 2017 20:13:24
Eccentricity: 0.0001453
inclination: 98.1123°
perigee height: 668 km
apogee height: 670 km
right ascension of ascending node: 194.2438°
argument of perigee: 92.6601°
revolutions per day: 14.67525320
mean anomaly at epoch: 267.4757°
orbit number at epoch: 43716

The dashed part of the orbit path shows where the satellite is in the earth's shadow,  

DLR